Location: Αθήνα
(37.9839°N, 23.7283°E)
Time: 21:43:43
(UTC+03:00)

EO-79 - Pass Details

Date: 18 June 2024
Orbit: 555 x 577 km, 98.0° (Epoch: 18 July)

Event Time Altitude Azimuth Distance (km) Brightness Sun altitude
Rises 03:54:19 0° 27° (NNE) 2,752 ? -19.5°
Reaches altitude 10° 03:56:49 10° 42° (NE) 1,848 ? -19.2°
Maximum altitude 04:00:02 23° 96° (E) 1,198 ? -18.8°
Enters shadow 04:03:03 11° 148° (SSE) 1,774 ? -18.4°
